Volkel, Netherlands

7:40 AM CET on November 18, 2017 (GMT +0100)
Volkel Air Base

Weather History for EHVK - April, 2013

Change the Weather History Date:

Monday, April 29, 2013

  Actual Average Record
Temperature  
Mean Temperature 45 °F -  
Max Temperature 53 °F 64 °F 73 °F (2011)
Min Temperature 37 °F 46 °F 32 °F (2017)
Degree Days  
Heating Degree Days 20    
Moisture  
Dew Point 37 °F    
Average Humidity 72    
Maximum Humidity 87    
Minimum Humidity 41    
Precipitation  
Precipitation 0.00 in - - ()
Sea Level Pressure  
Sea Level Pressure 30.00 in    
Wind  
Wind Speed 9 mph ()    
Max Wind Speed 18 mph    
Max Gust Speed -    
Visibility 6.1 miles    
Events Rain    
Averages and records for this station are not official NWS values.
T = Trace of Precipitation, MM = Missing Value Source: Averaged Metar Reports

Daily Weather History Graph

Daily Weather History Graph

Search for Another Location

Airport or City:

Trip Planner

Search our weather history database for the weather conditions in past years. The results will help you decide how hot, cold, wet, or windy it might be!

Date:

Astronomy

Apr. 29, 2013 Rise Set
Actual Time 6:12 AM CEST 8:57 PM CEST
Civil Twilight 5:34 AM CEST 9:36 PM CEST
Nautical Twilight 4:45 AM CEST 10:25 PM CEST
Astronomical Twilight 3:45 AM CEST 11:26 PM CEST
Moon 12:24 AM CEST (4/29) 9:02 AM CEST (4/29)
Length of Visible Light 16h 01m
Length of Day
14h 45m
Waning Gibbous, 82% of the Moon is Illuminated
Apr 29
Waning Gibbous
May 2
Last Quarter
May 10
New
May 18
First Quarter
May 25
Full

Hourly Weather History & Observations

Time (CEST) Temp. Windchill Dew Point Humidity Pressure Visibility Wind Dir Wind Speed Gust Speed Precip Events Conditions
12:25 AM 41.0 °F 37.1 °F 33.8 °F 76% 29.95 in 6.2 mi South 5.8 mph - N/A   Mostly Cloudy
12:55 AM 44.6 °F 42.2 °F 35.6 °F 71% 29.95 in 6.2 mi SSW 4.6 mph - N/A   Overcast
1:25 AM 44.6 °F 40.7 °F 35.6 °F 71% 29.95 in 6.2 mi SSW 6.9 mph - N/A   Mostly Cloudy
1:55 AM 42.8 °F 39.3 °F 35.6 °F 76% 29.95 in 6.2 mi WSW 5.8 mph - N/A   Mostly Cloudy
2:25 AM 39.2 °F 34.2 °F 33.8 °F 81% 29.95 in 6.2 mi SW 6.9 mph - N/A   Unknown
2:55 AM 39.2 °F 35.0 °F 33.8 °F 81% 29.95 in 6.2 mi SSW 5.8 mph - N/A   Unknown
3:25 AM 41.0 °F 35.8 °F 35.6 °F 81% 29.95 in 6.2 mi SSW 8.1 mph - N/A   Unknown
3:55 AM 41.0 °F 35.8 °F 35.6 °F 81% 29.92 in 6.2 mi SSW 8.1 mph - N/A   Unknown
4:25 AM 37.4 °F 32.1 °F 33.8 °F 87% 29.92 in 6.2 mi SW 6.9 mph - N/A   Unknown
4:55 AM 37.4 °F 30.8 °F 33.8 °F 87% 29.92 in 6.2 mi SW 9.2 mph - N/A   Unknown
5:25 AM 37.4 °F 30.8 °F 33.8 °F 87% 29.92 in 6.2 mi SW 9.2 mph - N/A   Unknown
5:55 AM 39.2 °F 32.5 °F 33.8 °F 81% 29.92 in 6.2 mi SW 10.4 mph - N/A   Unknown
6:25 AM 41.0 °F 33.9 °F 32.0 °F 70% 29.92 in 6.2 mi SW 12.7 mph - N/A   Unknown
6:55 AM 41.0 °F 33.9 °F 32.0 °F 70% 29.92 in 6.2 mi SW 12.7 mph - N/A   Partly Cloudy
7:25 AM 42.8 °F 36.6 °F 33.8 °F 70% 29.92 in 6.2 mi SSW 11.5 mph - N/A   Overcast
7:55 AM 44.6 °F 38.4 °F 32.0 °F 61% 29.92 in 6.2 mi SW 12.7 mph - N/A   Overcast
8:25 AM 44.6 °F 37.8 °F 33.8 °F 66% 29.92 in 6.2 mi SW 15.0 mph - N/A   Overcast
8:31 AM 44.6 °F 37.8 °F 33.8 °F 66% 29.92 in 6.2 mi SW 15.0 mph - N/A   Overcast
8:38 AM 44.6 °F 37.8 °F 33.8 °F 66% 29.92 in 6.2 mi SW 15.0 mph - N/A   Light Drizzle
8:55 AM 44.6 °F 38.1 °F 33.8 °F 66% 29.92 in 6.2 mi SW 13.8 mph - N/A   Overcast
9:25 AM 44.6 °F 37.8 °F 35.6 °F 71% 29.95 in 6.2 mi SW 15.0 mph - N/A   Overcast
9:55 AM 46.4 °F 39.8 °F 35.6 °F 66% 29.95 in 6.2 mi SW 16.1 mph - N/A   Overcast
10:02 AM 46.4 °F 39.8 °F 37.4 °F 71% 29.95 in 6.2 mi SW 16.1 mph - N/A   Overcast
10:25 AM 46.4 °F 39.5 °F 37.4 °F 71% 29.95 in 6.2 mi SW 17.3 mph - N/A   Overcast
10:29 AM 46.4 °F 39.2 °F 37.4 °F 71% 29.95 in 6.2 mi SW 18.4 mph - N/A   Mostly Cloudy
10:33 AM 44.6 °F 37.2 °F 37.4 °F 76% 29.95 in 6.2 mi SW 17.3 mph - N/A   Light Drizzle
10:50 AM 44.6 °F 37.4 °F 37.4 °F 76% 29.98 in 3.1 mi SW 16.1 mph - N/A Rain Light Rain
10:55 AM 44.6 °F 37.4 °F 37.4 °F 76% 29.98 in 4.3 mi SW 16.1 mph - N/A Rain Light Rain
10:59 AM 44.6 °F 37.8 °F 39.2 °F 81% 29.98 in 5.0 mi SW 15.0 mph - N/A Rain Rain
11:12 AM 46.4 °F 40.4 °F 39.2 °F 76% 29.98 in 6.2 mi SW 13.8 mph - N/A   Overcast
11:25 AM 46.4 °F 40.1 °F 39.2 °F 76% 29.98 in 6.2 mi SSW 15.0 mph - N/A   Mostly Cloudy
11:44 AM 48.2 °F - 39.2 °F 71% 29.98 in 6.2 mi SW 17.3 mph - N/A   Overcast
11:55 AM 48.2 °F - 39.2 °F 71% 29.98 in 6.2 mi SW 16.1 mph - N/A   Mostly Cloudy
12:25 PM 50.0 °F - 39.2 °F 66% 30.01 in 6.2 mi SW 17.3 mph - N/A   Mostly Cloudy
12:55 PM 50.0 °F - 39.2 °F 66% 30.01 in 6.2 mi SW 16.1 mph - N/A   Overcast
1:25 PM 50.0 °F - 39.2 °F 66% 30.01 in 6.2 mi SSW 12.7 mph - N/A   Overcast
1:43 PM 50.0 °F - 41.0 °F 71% 30.01 in 6.2 mi SSW 13.8 mph - N/A   Overcast
1:55 PM 51.8 °F - 41.0 °F 67% 30.01 in 6.2 mi SW 12.7 mph - N/A   Overcast
2:25 PM 48.2 °F - 39.2 °F 71% 30.04 in 6.2 mi NW 9.2 mph - N/A   Overcast
2:55 PM 48.2 °F - 41.0 °F 76% 30.04 in 6.2 mi West 11.5 mph - N/A Rain Drizzle
2:59 PM 46.4 °F 41.1 °F 41.0 °F 81% 30.04 in 6.2 mi West 11.5 mph - N/A Rain Light Drizzle
3:14 PM 48.2 °F - 42.8 °F 82% 30.04 in 6.2 mi West 10.4 mph - N/A   Overcast
3:25 PM 48.2 °F - 42.8 °F 82% 30.04 in 6.2 mi West 9.2 mph - N/A   Overcast
3:55 PM 50.0 °F - 42.8 °F 76% 30.06 in 6.2 mi WSW 11.5 mph - N/A   Mostly Cloudy
4:03 PM 50.0 °F - 41.0 °F 71% 30.06 in 6.2 mi WSW 11.5 mph - N/A   Overcast
4:25 PM 50.0 °F - 42.8 °F 76% 30.06 in 6.2 mi SW 12.7 mph - N/A   Mostly Cloudy
4:55 PM 50.0 °F - 41.0 °F 71% 30.06 in 6.2 mi SW 11.5 mph - N/A   Overcast
5:25 PM 53.6 °F - 41.0 °F 62% 30.06 in 6.2 mi SW 12.7 mph - N/A   Mostly Cloudy
5:55 PM 53.6 °F - 41.0 °F 62% 30.06 in 6.2 mi SW 10.4 mph - N/A   Unknown
6:25 PM 53.6 °F - 41.0 °F 62% 30.06 in 6.2 mi WSW 10.4 mph - N/A   Partly Cloudy
6:55 PM 51.8 °F - 39.2 °F 62% 30.06 in 6.2 mi WSW 9.2 mph - N/A   Mostly Cloudy
7:25 PM 51.8 °F - 39.2 °F 62% 30.09 in 6.2 mi West 6.9 mph - N/A   Mostly Cloudy
7:55 PM 51.8 °F - 28.4 °F 41% 30.09 in 6.2 mi WNW 10.4 mph - N/A   Unknown
8:25 PM 50.0 °F - 32.0 °F 50% 30.09 in 6.2 mi WNW 6.9 mph - N/A   Unknown
8:55 PM 48.2 °F - 33.8 °F 58% 30.09 in 6.2 mi West 4.6 mph - N/A   Unknown
9:25 PM 46.4 °F 45.2 °F 33.8 °F 62% 30.12 in 6.2 mi West 3.5 mph - N/A   Unknown
9:55 PM 41.0 °F 39.0 °F 32.0 °F 70% 30.12 in 6.2 mi SSW 3.5 mph - N/A   Unknown
10:25 PM 41.0 °F - 33.8 °F 76% 30.12 in 6.2 mi SSW 2.3 mph - N/A   Unknown
10:55 PM 41.0 °F 39.0 °F 35.6 °F 81% 30.12 in 6.2 mi SSW 3.5 mph - N/A   Unknown
11:25 PM 41.0 °F - 35.6 °F 81% 30.12 in 6.2 mi SW 2.3 mph - N/A   Unknown
11:55 PM 41.0 °F - 33.8 °F 76% 30.15 in 6.2 mi WSW 2.3 mph - N/A   Unknown